Powrót do katalogu

ONEWEB-0542

AktywnyŁącznośćPO
NORAD 54646·PAYLOAD·🇬🇧 United Kingdom

Wystrzelony Dec 8, 2022 z Cape Canaveral Space Force Station

Loading…

Następne Przeloty (najbliższe 24 godziny)

TLE

ŚwieżeSource: CelesTrak SupGP

Epoka: Sep 14, 2026, 16:56 UTC

1 54646C 22166E   26257.70605741  .00001499  00000+0  36351-2 0  2573
2 54646  87.9279 226.1559 0002365  87.2956 308.3829 13.21821712    14

Śledź ONEWEB-0542 w czasie rzeczywistym z AllMySat

Download on the App Store